TimeMST,TemperatureF,Dew PointF,Humidity,Sea Level PressureIn,VisibilityMPH,Wind Direction,Wind SpeedMPH,Gust SpeedMPH,PrecipitationIn,Events,Conditions,WindDirDegrees,DateUTC
12:53 AM,14.0,10.0,84,29.99,9.0,Calm,Calm,-,0.00,Fog,Overcast,0,2012-12-23 07:53:00
1:53 AM,14.0,10.9,88,30.01,8.0,WSW,3.5,-,N/A,Fog,Overcast,240,2012-12-23 08:53:00
2:53 AM,14.0,10.9,88,29.99,8.0,East,3.5,-,N/A,Fog,Overcast,80,2012-12-23 09:53:00
3:53 AM,14.0,10.9,88,30.00,7.0,Calm,Calm,-,N/A,Fog,Overcast,0,2012-12-23 10:53:00
4:53 AM,15.1,12.0,88,30.01,7.0,Calm,Calm,-,N/A,Fog,Overcast,0,2012-12-23 11:53:00
5:53 AM,14.0,10.9,88,30.06,8.0,West,3.5,-,N/A,Fog,Overcast,270,2012-12-23 12:53:00
6:53 AM,15.1,12.0,88,30.06,7.0,SSW,3.5,-,N/A,,Overcast,200,2012-12-23 13:53:00
7:53 AM,15.1,12.0,88,30.06,7.0,South,5.8,-,0.00,,Mostly Cloudy,190,2012-12-23 14:53:00
8:53 AM,16.0,12.9,88,30.09,5.0,Calm,Calm,-,N/A,,Partly Cloudy,0,2012-12-23 15:53:00
9:53 AM,16.0,12.9,88,30.12,5.0,Calm,Calm,-,N/A,,Partly Cloudy,0,2012-12-23 16:53:00
10:53 AM,19.0,14.0,81,30.13,7.0,Calm,Calm,-,N/A,,Clear,0,2012-12-23 17:53:00
11:53 AM,21.9,15.1,75,30.09,8.0,Calm,Calm,-,N/A,,Clear,0,2012-12-23 18:53:00
12:53 PM,23.0,15.1,72,30.07,9.0,ESE,3.5,-,N/A,,Clear,120,2012-12-23 19:53:00
1:53 PM,27.0,16.0,63,30.06,10.0,ENE,3.5,-,N/A,,Clear,70,2012-12-23 20:53:00
2:53 PM,27.0,16.0,63,30.04,10.0,ENE,5.8,-,N/A,,Clear,60,2012-12-23 21:53:00
3:53 PM,24.1,15.1,69,30.06,10.0,NE,4.6,-,N/A,,Partly Cloudy,40,2012-12-23 22:53:00
4:53 PM,19.9,12.9,74,30.06,10.0,NNE,6.9,-,N/A,,Partly Cloudy,30,2012-12-23 23:53:00
5:53 PM,19.0,12.0,74,30.04,10.0,NNE,9.2,-,N/A,,Clear,30,2012-12-24 00:53:00
6:53 PM,15.1,10.0,80,30.05,10.0,NNE,6.9,-,N/A,,Clear,20,2012-12-24 01:53:00
7:53 PM,14.0,10.0,84,30.05,10.0,North,5.8,-,N/A,,Clear,360,2012-12-24 02:53:00
8:53 PM,14.0,10.0,84,30.05,10.0,North,8.1,-,N/A,,Clear,360,2012-12-24 03:53:00
9:53 PM,14.0,10.0,84,30.04,10.0,NNE,9.2,-,N/A,,Clear,30,2012-12-24 04:53:00
10:53 PM,12.9,9.0,84,30.03,10.0,NE,12.7,-,N/A,,Scattered Clouds,40,2012-12-24 05:53:00
11:53 PM,12.0,8.1,84,29.99,10.0,NE,15.0,-,N/A,,Scattered Clouds,40,2012-12-24 06:53:00